Weather History for Stevens Point, WI

Change the Weather History Date:

Saturday, May 10, 2014

  Actual Average Record
Temperature  
Mean Temperature 54 °F -  
Max Temperature 68 °F 67 °F 85 °F (1987)
Min Temperature 39 °F 41 °F 24 °F (1966)
Degree Days  
Heating Degree Days 12    
Growing Degree Days 4 (Base 50)    
Moisture  
Dew Point 35 °F    
Average Humidity 53    
Maximum Humidity 89    
Minimum Humidity 19    
Precipitation  
Precipitation 0.00 in - - ()
Sea Level Pressure  
Sea Level Pressure 29.88 in    
Wind  
Wind Speed 6 mph (WSW)    
Max Wind Speed 12 mph    
Max Gust Speed 20 mph    
Visibility 10 miles    
Events Rain    
Averages and records for this station are not official NWS values.
T = Trace of Precipitation, MM = Missing Value Source: NWS Daily Summary

Daily Weather History Graph

Daily Weather History Graph

Search for Another Location

Airport:

Trip Planner

Search our weather history database for the weather conditions in past years. The results will help you decide how hot, cold, wet, or windy it might be!

Date:

Astronomy

May. 10, 2014 Rise Set
Actual Time 5:36 AM CDT 8:13 PM CDT
Civil Twilight 5:03 AM CDT 8:46 PM CDT
Nautical Twilight 4:21 AM CDT 9:28 PM CDT
Astronomical Twilight 3:33 AM CDT 10:16 PM CDT
Moon 3:59 PM CDT (5/10) 3:20 AM CDT (5/10)
Length of Visible Light 15h 43m
Length of Day
14h 37m
Waxing Gibbous, 82% of the Moon is Illuminated
May 10
Waxing Gibbous
May 14
Full
May 21
Last Quarter
May 28
New
Jun 5
First Quarter

Hourly Weather History & Observations

Time (CDT) Temp. Windchill Dew Point Humidity Pressure Visibility Wind Dir Wind Speed Gust Speed Precip Events Conditions
12:15 AM 45.7 °F 42.0 °F 39.4 °F 79% 29.79 in 10.0 mi WSW 6.9 mph - N/A   Clear
12:35 AM 44.6 °F 42.2 °F 39.2 °F 81% 29.80 in 10.0 mi WSW 4.6 mph - N/A   Clear
12:55 AM 44.2 °F 41.0 °F 38.8 °F 81% 29.80 in 10.0 mi WSW 5.8 mph - N/A   Clear
1:15 AM 43.2 °F 40.5 °F 38.3 °F 83% 29.81 in 10.0 mi WSW 4.6 mph - N/A   Clear
1:35 AM 43.3 °F 39.9 °F 38.5 °F 83% 29.81 in 10.0 mi WSW 5.8 mph - N/A   Clear
1:55 AM 43.0 °F 39.5 °F 38.3 °F 84% 29.81 in 10.0 mi WSW 5.8 mph - N/A   Clear
2:15 AM 43.0 °F 40.3 °F 38.3 °F 84% 29.82 in 10.0 mi WSW 4.6 mph - N/A   Clear
2:35 AM 41.7 °F 38.8 °F 37.4 °F 85% 29.82 in 10.0 mi SW 4.6 mph - N/A   Clear
2:55 AM 39.9 °F 35.8 °F 36.9 °F 89% 29.83 in 10.0 mi SW 5.8 mph - N/A   Clear
3:15 AM 42.4 °F 38.8 °F 37.6 °F 83% 29.83 in 10.0 mi WSW 5.8 mph - N/A   Clear
3:35 AM 42.4 °F 39.6 °F 37.4 °F 82% 29.83 in 10.0 mi WSW 4.6 mph - N/A   Clear
3:55 AM 41.5 °F 38.6 °F 36.9 °F 83% 29.84 in 10.0 mi WSW 4.6 mph - N/A   Clear
4:15 AM 42.4 °F 38.1 °F 37.2 °F 82% 29.85 in 10.0 mi WSW 6.9 mph - N/A   Clear
4:35 AM 42.8 °F 39.3 °F 36.7 °F 79% 29.85 in 10.0 mi WSW 5.8 mph - N/A   Clear
4:55 AM 42.8 °F 38.0 °F 36.5 °F 78% 29.86 in 10.0 mi WSW 8.1 mph - N/A   Clear
5:15 AM 42.3 °F 37.3 °F 36.5 °F 80% 29.86 in 10.0 mi WSW 8.1 mph - N/A   Clear
5:35 AM 41.9 °F 36.9 °F 36.5 °F 81% 29.87 in 10.0 mi WSW 8.1 mph - N/A   Clear
5:55 AM 41.9 °F 37.5 °F 36.3 °F 81% 29.87 in 10.0 mi West 6.9 mph - N/A   Clear
6:15 AM 42.3 °F 37.9 °F 36.3 °F 79% 29.88 in 10.0 mi WSW 6.9 mph - N/A   Clear
6:35 AM 42.8 °F 38.0 °F 36.5 °F 78% 29.89 in 10.0 mi WSW 8.1 mph - N/A   Clear
6:55 AM 43.9 °F 39.9 °F 36.7 °F 76% 29.89 in 10.0 mi West 6.9 mph - N/A   Clear
7:15 AM 45.1 °F 41.4 °F 36.9 °F 73% 29.90 in 10.0 mi West 6.9 mph - N/A   Clear
7:35 AM 46.4 °F 42.9 °F 37.2 °F 70% 29.90 in 10.0 mi West 6.9 mph - N/A   Clear
7:55 AM 47.8 °F - 36.7 °F 65% 29.91 in 10.0 mi West 4.6 mph - N/A   Clear
8:15 AM 49.5 °F - 36.3 °F 61% 29.91 in 10.0 mi West 9.2 mph - N/A   Clear
8:35 AM 50.9 °F - 36.0 °F 57% 29.91 in 10.0 mi West 8.1 mph - N/A   Clear
8:55 AM 52.7 °F - 35.4 °F 52% 29.91 in 10.0 mi West 9.2 mph - N/A   Clear
9:15 AM 54.7 °F - 34.9 °F 47% 29.91 in 10.0 mi West 6.9 mph - N/A   Clear
9:35 AM 55.2 °F - 33.6 °F 44% 29.91 in 10.0 mi West 8.1 mph - N/A   Clear
9:55 AM 55.9 °F - 31.8 °F 40% 29.91 in 10.0 mi West 9.2 mph 19.6 mph N/A   Clear
10:15 AM 56.7 °F - 32.2 °F 40% 29.91 in 10.0 mi West 10.4 mph 16.1 mph N/A   Clear
10:35 AM 57.4 °F - 29.7 °F 35% 29.91 in 10.0 mi WNW 10.4 mph 16.1 mph N/A   Clear
10:55 AM 58.5 °F - 29.7 °F 33% 29.91 in 10.0 mi WNW 8.1 mph 17.3 mph N/A   Clear
11:15 AM 58.5 °F - 29.8 °F 34% 29.91 in 10.0 mi NW 9.2 mph - N/A   Clear
11:35 AM 59.7 °F - 30.9 °F 34% 29.91 in 10.0 mi West 11.5 mph 18.4 mph N/A   Clear
11:55 AM 60.3 °F - 30.9 °F 33% 29.91 in 10.0 mi West 9.2 mph - N/A   Clear
12:15 PM 60.3 °F - 30.4 °F 32% 29.91 in 10.0 mi WNW 5.8 mph - N/A   Clear
12:35 PM 61.3 °F - 31.8 °F 33% 29.91 in 10.0 mi West 9.2 mph - N/A   Clear
12:55 PM 61.9 °F - 30.6 °F 31% 29.91 in 10.0 mi West 9.2 mph - N/A   Clear
1:15 PM 62.1 °F - 30.9 °F 31% 29.91 in 10.0 mi WSW 10.4 mph - N/A   Clear
1:35 PM 63.0 °F - 31.6 °F 31% 29.91 in 10.0 mi West 6.9 mph - N/A   Clear
1:55 PM 63.3 °F - 31.3 °F 30% 29.91 in 10.0 mi SW 6.9 mph - N/A   Clear
2:15 PM 63.3 °F - 29.8 °F 28% 29.91 in 10.0 mi West 6.9 mph - N/A   Clear
2:35 PM 63.9 °F - 28.8 °F 27% 29.90 in 10.0 mi West 5.8 mph - N/A   Clear
2:55 PM 65.1 °F - 28.9 °F 26% 29.90 in 10.0 mi Calm Calm - N/A   Clear
3:15 PM 65.3 °F - 28.0 °F 25% 29.89 in 10.0 mi West 4.6 mph - N/A   Clear
3:35 PM 66.0 °F - 27.9 °F 24% 29.89 in 10.0 mi West 5.8 mph - N/A   Clear
3:55 PM 66.6 °F - 23.5 °F 20% 29.89 in 10.0 mi WSW 4.6 mph - N/A   Clear
4:15 PM 66.9 °F - 24.1 °F 20% 29.89 in 10.0 mi SW 8.1 mph - N/A   Clear
4:35 PM 67.3 °F - 24.8 °F 20% 29.88 in 10.0 mi WNW 4.6 mph - N/A   Clear
4:55 PM 68.0 °F - 23.7 °F 19% 29.89 in 10.0 mi West 3.5 mph - N/A   Clear
5:15 PM 68.0 °F - 25.9 °F 21% 29.89 in 10.0 mi SSW 3.5 mph - N/A   Clear
5:35 PM 68.2 °F - 26.4 °F 21% 29.88 in 10.0 mi WSW 5.8 mph - N/A   Clear
5:55 PM 68.2 °F - 25.9 °F 20% 29.88 in 10.0 mi SW 3.5 mph - N/A   Clear
6:15 PM 66.7 °F - 25.9 °F 21% 29.88 in 10.0 mi South 6.9 mph - N/A   Scattered Clouds
6:35 PM 67.1 °F - 26.6 °F 22% 29.88 in 10.0 mi South 5.8 mph - N/A   Clear
6:55 PM 66.2 °F - 29.5 °F 25% 29.88 in 10.0 mi SW 6.9 mph - N/A   Mostly Cloudy
7:15 PM 65.1 °F - 31.5 °F 28% 29.89 in 10.0 mi SW 4.6 mph - N/A   Overcast
7:35 PM 64.4 °F - 32.4 °F 30% 29.89 in 10.0 mi SSW 6.9 mph - N/A   Overcast
7:55 PM 64.0 °F - 39.9 °F 41% 29.88 in 10.0 mi West 6.9 mph - N/A   Overcast
8:15 PM 63.0 °F - 42.1 °F 46% 29.88 in 10.0 mi Calm Calm - N/A   Overcast
8:55 PM 61.9 °F - 43.2 °F 50% 29.90 in 10.0 mi Calm Calm - N/A   Overcast
9:15 PM 59.7 °F - 43.7 °F 55% 29.90 in 10.0 mi Calm Calm - N/A   Overcast
9:55 PM 58.1 °F - 43.7 °F 59% 29.93 in 10.0 mi Calm Calm - N/A   Overcast
10:15 PM 57.0 °F - 44.6 °F 63% 29.93 in 10.0 mi Calm Calm - N/A   Overcast
10:35 PM 55.9 °F - 44.4 °F 65% 29.93 in 10.0 mi Calm Calm - N/A   Overcast
10:55 PM 57.2 °F - 44.2 °F 62% 29.93 in 10.0 mi Calm Calm - N/A   Overcast
11:15 PM 55.2 °F - 45.3 °F 69% 29.93 in 10.0 mi SSE 4.6 mph - N/A Rain Light Rain
11:35 PM 56.5 °F - 47.3 °F 71% 29.94 in 10.0 mi Calm Calm - N/A Rain Light Rain
11:55 PM 52.9 °F - 49.3 °F 88% 29.92 in 10.0 mi East 8.1 mph - N/A   Overcast